EHI
0 0 0 0 0 0 0 0 0 0 0 0 0 0 0 0 0 0 0 0 0 0 0 0 0 0 0 0 0 0 0 0 0 0 0 0 0 0 0 0 0 0 0 0 0 0 0 0 0
0 0 0 0 0 0 0 0 0 0 0 0 0 0 0 0 0 0 0 0 0 0 0 0 0 0 0 0 0 0 0 0 0 0 0 0 0 0 0 0 0 0 0 0 0 0 0 0 0
0 0 0 0 0 0 0 0 0 0 0 0 0 0 0 0 0 0 0 0 0 0 0 0 0 0 0 0 0 0 0 0 0 0 0 0 0 0 0 0 0 0 0 0 0 0 0 0 0
0 0 0 0 0 0 0 0 0 0 0 0 0 0 0 0 0 0 0 0 0 0 0 0 0 0 0 0 0 0 0 0 0 0 0 0 0 0 0 0 0 0 0 0 0 0 0 0 0
0 0 0 0 0 0 0 0 0 0 0 0 0 0 0 0 0 0 0 0 0 0 0 0 0 0 0 0 0 0 0 0 0 0 0 0 0 0 0 0 0 0 0 0 0 0 0 0 0
0 0 0 0 0 0 0 0 0 0 0 0 0 0 0 0 0 0 0 0 0 0 0 0 0 0 0 0 0 0 0 0 0 0 0 0 0 0 0 0 0 0 0 0 0 0 0 0 0
0 0 0 0 0 0 0 0 0 0 0 0 0 0 0 0 0 0 0 0 0 0 0 0 0 0 0 0 0 0 0 0 0 0 0 0 0 0 0 0 0 0 0 0 0 0 0 0 0
0 0 0 0 0 0 0 0 0 0 0 0 0 0 0 0 0 0 0 0 0 0 0 0 0 0 0 0 0 0 0 0 0 0 0 0 0 0 0 0 0 0 0 0 0 0 0 0 0
0 0 0 0 0 0 0 0 0 0 0 0 0 0 0 0 0 0 0 0 0 0 0 0 0 0 0 0 0 0 0 0 0 0 0 0 0 0 0 0 0 0 0 0 0 0 0 0 0
0 0 0 0 0 0 0 0 0 0 0 0 0 0 0 0 0 0 0 0 0 0 0 0 0 0 0 0 0 0 0 0 0 0 0 0 0 0 0 0 0 0 0 0 0 0 0 0 0
0 0 0 0 0 0 0 0 0 0 0 0 0 0 0 0 0 0 0 0 0 0 0 0 0 0 0 0 0 0 0 0 0 0 0 0 0 0 0 0 0 0 0 0 0 0 0 0 0
0 0 0 0 0 0 0 0 0 0 0 0 0 0 0 0 0 0 0 0 0 0 0 0 0 0 0 0 0 0 0 0 0 0 0 0 0 0 0 0 0 0 0 0 0 0 0 0 0
0 0 0 0 0 0 0 0 0 0 0 0 0 0 0 0 0 0 0 0 0 0 0 0 0 0 0 0 0 0 0 0 0 0 0 0 0 0 0 0 0 0 0 0 0 0 0 0 0
0 0 0 0 0 0 0 0 0 0 0 0 0 0 0 0 0 0 0 0 0 0 0 0 0 0 0 0 0 0 0 0 0 0 0 0 0 0 0 0 0 0 0 0 0 0 0 0 0
0 0 0 0 0 0 0 0 0 0 0 0 0 0 0 0 0 0 0 0 0 0 0 0 0 0 0 0 0 0 0 0 0 0 0 0 0 0 0 0 0 0 0 0 0 0 0 0 0
0 0 0 0 0 0 0 0 0 0 0 0 0 0 0 0 0 0 0 0 0 0 0 0 0 0 0 0 0 0 0 0 0 0 0 0 0 0 0 0 0 0 0 0 0 0 0 0 0
0 0 0 0 0 0 0 0 0 0 0 0 0 0 0 0 0 0 0 0 0 0 0 0 0 0 0 0 0 0 0 0 0 0 0 0 0 0 0 0 0 0 0 0 0 0 0 0 0
0 0 0 0 0 0 0 0 0 0 0 0 0 0 0 0 0 0 0 0 0 0 0 0 0 0 0 0 0 0 0 0 0 0 0 0 0 0 0 0 0 0 0 0 0 0 0 0 0
0 0 0 0 0 0 0 0 0 0 0 0 0 0 0 0 0 0 0 0 0 0 0 0 0 0 0 0 0 0 0 0 0 0 0 0 0 0 0 0 0 0 0 0 0 0 0 0 0
0 0 0 0 0 0 0 0 0 0 0 0 0 0 0 0 0 0 0 0 0 0 0 0 0 0 0 0 0 0 0 0 0 0 0 0 0 0 0 0 0 0 0 0 0 0 0 0 0
0 0 0 0 0 0 0 0 0 0 0 0 0 0 0 0 0 0 0 0 0 0 0 0 0 0 0 0 0 0 0 0 0 0 0 0 0 0 0 0 0 0 0 0 0 0 0 0 0
0 0 0 0 0 0 0 0 0 0 0 0 0 0 0 0 0 0 0 0 0 0 0 0 0 0 0 0 0 0 0 0 0 0 0 0 0 0 0 0 0 0 0 0 0 0 0 0 0
0 0 0 0 0 0 0 0 0 0 0 0 0 0 0 0 0 0 0 0 0 0 0 0 0 0 0 0 0 0 0 0 0 0 0 0 0 0 0 0 0 0 0 0 0 0 0 0 0
0 0 0 0 0 0 0 0 0 0 0 0 0 0 0 0 0 0 0 0 0 0 0 0 0 0 0 0 0 0 0 0 0 0 0 0 0 0 0 0 0 0 0 0 0 0 0 0 0
0 0 0 0 0 0 0 0 0 0 0 0 0 0 0 0 0 0 0 0 0 0 0 0 0 0 0 0 0 0 0 0 0 0 0 0 0 0 0 0 0 0 0 0 0 0 0 0 0
0 0 0 0 0 0 0 0 0 0 0 0 0 0 0 0 0 0 0 0 0 0 0 0 0 0 0 0 0 0 0 0 0 0 0 0 0 0 0 0 0 0 0 0 0 0 0 0 0
0 0 0 0 0 0 0 0 0 0 0 0 0 0 0 0 0 0 0 0 0 0 0 0 0 0 0 0 0 0 0 0 0 0 0 0 0 0 0 0 0 0 0 0 0 0 0 0 0
0 0 0 0 0 0 0 0 0 0 0 0 0 0 0 0 0 0 0 0 0 0 0 0 0 0 0 0 0 0 0 0 0 0 0 0 0 0 0 0 0 0 0 0 0 0 0 0 0
0 0 0 0 0 0 0 0 0 0 0 0 0 0 0 0 0 0 0 0 0 0 0 0 0 0 0 0 0 0 0 0 0 0 0 0 0 0 0 0 0 0 0 0 0 0 0 0 0
0 0 0 0 0 0 0 0 0 0 0 0 0 0 0 0 0 0 0 0 0 0 0 0 0 0 0 0 0 0 0 0 0 0 0 0 0 0 0 0 0 0 0 0 0 0 0 0 0
Wind_Speed
3 2 3 5 7 7 1 2 4 3 3 1 2 2 6 7 6 4 2 4 5 4 3 3 6 8 8 8 9 9 10 11 12 13 14 15 16 17 18 18 19 20 21 21 22 23 24 24 25
1 2 5 6 6 2 3 3 5 4 5 5 3 2 3 2 1 4 4 5 5 5 3 1 7 8 8 8 8 9 9 11 12 13 14 14 15 16 17 17 18 19 20 20 21 22 23 23 24
2 5 6 6 4 3 3 3 5 3 5 4 3 1 2 3 4 6 5 7 5 4 3 1 9 8 7 7 8 8 9 10 11 12 13 14 14 15 16 17 17 18 19 19 20 21 22 23 23
4 6 6 6 1 2 2 2 5 7 3 2 4 2 2 1 5 6 6 7 6 4 2 1 9 8 7 7 7 7 8 10 11 12 13 13 14 14 15 16 16 17 18 18 19 20 21 22 22
5 5 6 3 2 2 2 2 7 7 6 4 5 4 3 1 3 7 8 7 7 5 2 1 8 8 7 6 7 7 8 9 10 11 12 13 13 14 14 15 16 16 17 18 18 19 20 21 22
6 5 4 2 3 2 2 4 6 4 4 4 6 4 4 2 6 8 8 7 6 6 4 3 6 7 6 6 6 7 7 8 9 10 11 12 13 13 14 14 15 15 16 17 18 19 20 20 21
5 4 3 3 2 3 4 6 5 6 5 7 8 5 2 4 6 8 7 6 5 5 5 4 4 4 5 5 6 6 7 8 8 10 11 12 12 13 13 14 14 15 15 16 17 18 19 19 20
5 7 3 2 4 6 4 6 4 8 6 3 8 6 5 7 8 7 6 5 4 4 4 4 4 4 4 3 5 6 7 8 8 9 10 11 12 12 13 12 13 14 15 15 17 17 18 19 19
3 5 3 6 7 5 5 5 3 3 5 3 4 3 1 11 11 9 5 4 4 5 4 4 4 4 4 3 5 5 6 7 7 6 9 9 4 4 6 10 13 13 14 15 16 17 17 17 17
4 3 6 4 6 4 6 7 7 4 3 4 4 3 5 12 14 13 11 10 9 8 6 5 5 5 4 4 4 3 3 4 4 4 4 3 3 3 5 10 12 13 14 14 15 16 15 12 6
3 3 1 0 1 3 6 5 6 7 9 12 10 9 10 12 14 15 13 11 11 8 7 7 7 6 5 4 4 2 2 2 3 4 4 3 3 2 3 2 4 5 8 5 8 8 5 5 5
3 1 1 2 1 3 6 6 5 9 11 6 8 10 12 17 19 19 17 12 9 8 9 8 8 6 6 5 4 4 3 3 3 4 5 4 2 2 1 1 1 2 2 3 3 2 4 4 5
2 1 2 2 1 2 3 4 5 9 9 3 6 11 15 19 18 15 12 10 10 11 11 10 9 8 6 5 4 4 4 4 4 4 4 5 3 3 2 1 1 1 1 2 2 3 4 4 5
1 0 2 1 1 2 3 3 4 12 5 6 8 11 14 17 18 13 12 14 14 14 13 10 10 9 7 6 5 5 4 4 4 4 5 6 4 3 3 1 0 1 1 1 2 3 3 4 4
1 2 3 2 1 1 0 8 11 8 5 7 9 10 12 13 14 18 17 17 16 13 12 12 12 10 9 8 7 5 5 5 4 4 5 6 5 4 3 2 2 2 2 2 2 3 3 4 4
2 3 4 3 3 1 2 12 10 4 8 10 10 9 10 12 13 15 14 13 13 12 12 13 12 11 10 8 7 5 5 5 5 4 5 6 6 5 4 3 3 3 2 2 3 3 3 4 4
3 3 4 6 4 3 5 13 8 3 7 10 10 10 11 11 13 14 14 14 13 14 14 14 12 13 12 9 6 6 5 5 5 5 5 6 6 6 5 4 4 3 3 3 4 2 3 4 5
3 4 5 6 3 5 7 16 17 6 8 12 11 10 11 15 19 15 14 13 13 13 14 15 14 12 10 7 4 3 4 4 4 5 6 7 6 7 5 4 5 4 3 3 3 4 4 4 5
2 4 7 8 3 6 11 19 23 11 10 14 14 12 14 18 14 9 12 12 11 13 15 15 15 13 10 6 5 5 5 5 5 6 7 8 7 7 6 4 5 4 4 5 4 3 4 3 2
3 4 7 7 2 5 8 17 19 12 12 14 14 15 16 14 9 11 12 14 17 17 17 17 18 16 15 10 6 4 4 4 4 5 7 8 8 7 7 6 5 5 4 5 5 4 2 3 2
4 5 6 6 4 3 7 14 10 6 4 6 9 10 11 15 16 12 13 16 16 19 21 18 19 18 16 12 6 3 2 2 3 5 6 7 8 8 7 7 6 6 5 5 5 5 5 4 3
6 6 4 3 3 6 2 10 13 6 7 8 10 10 13 14 13 12 13 15 19 21 17 18 18 18 16 15 13 12 10 9 10 6 6 7 8 8 8 7 7 6 5 6 6 6 5 4 4
6 0 0 1 2 5 3 5 15 5 8 10 10 11 13 13 13 14 16 18 17 15 14 16 16 17 17 17 18 15 13 8 5 4 7 7 7 7 8 8 7 7 6 6 7 5 6 5 5
2 3 3 4 3 5 4 5 13 7 9 8 6 7 10 10 11 13 11 10 11 11 13 14 16 18 17 18 18 18 17 12 9 9 9 8 6 6 8 8 7 7 6 7 7 7 7 6 7
2 3 5 6 3 7 2 4 15 13 8 8 9 9 7 6 7 9 10 11 12 13 15 15 17 19 18 19 19 19 18 15 16 13 12 10 7 7 9 9 8 7 8 8 7 7 7 7 8
3 5 4 4 5 7 3 9 14 11 8 8 9 10 9 9 8 9 10 10 11 12 14 16 19 20 18 19 20 18 16 13 11 13 10 11 9 9 9 10 9 9 8 8 7 6 7 7 8
4 3 3 3 3 5 9 10 16 9 7 6 8 8 11 11 9 9 8 9 10 12 15 17 18 18 18 20 18 17 17 15 14 12 11 9 8 8 9 9 9 9 9 9 7 7 8 7 8
2 5 4 2 3 6 8 7 8 10 10 8 8 9 10 10 9 9 8 8 9 10 10 12 16 18 17 17 17 15 17 16 14 12 13 12 11 10 9 10 10 9 9 9 8 7 8 8 9
4 3 4 3 3 4 7 11 9 9 9 10 11 10 10 11 10 9 8 6 7 7 9 12 14 15 15 17 17 16 16 15 14 14 14 13 11 12 11 11 10 10 10 9 8 9 8 9 10
6 7 8 4 6 6 5 14 11 9 9 8 11 11 10 10 10 9 8 7 6 8 9 11 13 15 16 14 15 16 14 14 16 16 15 14 13 12 12 11 10 10 10 9 9 10 10 10 11
Wind_Direction
67 60 64 56 55 53 118 207 169 157 164 109 96 123 158 167 172 190 134 169 145 130 82 80 115 103 90 77 67 59 53 48 44 40 38 36 35 33 30 29 28 27 26 25 25 24 23 23 21
76 54 54 58 80 47 268 204 190 193 155 135 106 108 125 177 152 128 160 182 153 129 95 57 128 111 98 85 73 63 57 52 47 43 40 37 35 34 30 29 28 27 26 25 24 23 22 21 19
81 51 75 71 94 179 237 197 181 111 136 140 118 74 196 194 179 179 191 166 141 123 99 208 129 118 105 92 79 68 62 57 51 47 43 38 37 36 31 29 28 26 25 24 23 22 21 19 17
73 46 53 70 118 210 252 202 150 129 154 143 145 174 242 209 179 182 154 150 135 127 86 234 136 126 113 100 87 75 66 61 56 52 46 41 39 38 32 29 28 26 25 24 22 22 20 18 16
58 72 59 48 259 261 250 188 155 159 181 176 169 187 230 189 137 140 146 151 146 140 87 302 141 131 120 108 96 83 74 67 61 57 51 43 41 39 32 28 29 26 26 24 22 21 20 18 14
58 65 82 263 259 275 235 167 156 170 168 170 177 190 228 151 148 158 157 159 155 142 103 45 138 131 125 114 105 92 82 75 67 64 58 48 43 39 33 28 29 27 26 24 23 22 20 18 14
103 99 163 214 235 266 210 163 175 172 189 203 180 183 226 189 186 159 156 154 156 143 121 89 69 79 103 106 112 101 91 83 74 69 64 53 46 39 34 27 28 28 27 24 23 22 20 19 14
114 100 100 193 217 250 192 167 192 171 201 167 161 183 228 197 159 139 139 148 156 151 140 131 114 105 89 65 111 107 99 92 80 75 72 63 52 41 33 25 27 29 28 24 24 22 21 20 13
88 84 204 217 204 236 168 172 177 146 132 180 213 216 178 137 135 135 144 167 181 178 172 157 150 146 140 132 107 96 96 95 86 72 81 80 65 51 28 22 29 29 29 25 24 23 20 20 11
78 154 228 209 194 206 178 185 174 148 182 223 239 200 120 140 159 171 180 186 190 191 190 183 173 168 161 144 116 113 105 101 109 108 101 100 82 60 56 32 33 31 31 25 23 22 20 15 1
60 188 230 348 234 176 170 191 178 171 223 216 208 187 155 164 178 189 193 191 193 189 188 185 184 177 167 154 152 144 135 133 136 139 136 124 102 70 62 47 33 25 32 26 18 14 6 353 343
82 24 353 322 215 166 181 176 195 212 226 213 199 162 168 178 190 196 197 194 187 185 195 187 184 179 180 169 163 162 160 161 166 166 156 145 135 120 98 72 40 32 23 13 7 355 341 332 320
77 337 357 360 95 161 157 195 233 243 235 203 150 158 181 190 198 203 200 192 189 195 195 191 185 185 180 174 180 171 176 178 177 173 170 163 154 152 142 113 50 16 8 358 336 327 318 313 304
122 4 314 331 89 162 197 250 247 257 214 178 176 188 195 199 200 196 197 197 199 201 198 191 190 189 181 182 185 180 181 180 177 181 182 174 166 165 163 164 183 281 283 280 286 286 288 287 285
118 352 309 237 199 201 342 283 236 237 154 201 211 210 209 212 204 204 203 203 201 199 195 192 194 189 187 189 191 185 183 179 183 187 185 182 176 174 172 181 211 233 243 262 270 277 268 276 284
42 11 315 267 190 154 171 269 264 205 184 223 224 222 222 221 216 215 209 206 200 195 194 197 196 190 193 192 190 183 183 184 188 186 185 189 187 181 179 191 216 224 226 241 258 255 268 275 280
22 330 289 295 195 168 205 256 272 159 201 237 235 226 227 231 229 221 211 206 200 198 196 196 197 190 193 191 187 186 183 191 190 186 189 194 192 187 184 199 216 218 223 235 258 258 249 269 280
279 274 273 274 230 187 232 257 266 216 213 239 243 234 229 233 233 220 211 206 201 199 199 199 198 193 184 177 172 181 196 203 195 193 196 194 194 191 188 202 216 212 219 235 240 259 256 251 266
233 246 267 265 221 201 244 261 269 255 222 240 242 236 234 238 239 211 204 200 198 199 200 200 199 192 179 171 176 182 205 201 201 204 201 196 194 193 191 205 208 208 214 228 234 247 270 268 260
229 267 274 283 212 217 279 276 271 254 228 230 234 233 234 238 236 214 202 199 202 204 204 203 203 195 192 191 175 174 173 187 196 198 199 197 195 194 199 200 206 209 214 228 232 222 249 263 276
244 229 250 274 319 277 310 297 289 290 244 249 236 234 232 230 235 221 207 207 206 208 207 205 204 200 196 186 163 146 137 147 178 199 202 200 195 196 201 200 202 207 206 219 226 218 222 247 258
262 244 234 278 322 300 353 301 292 289 294 262 245 233 236 234 232 224 211 210 211 214 207 207 203 201 195 186 187 185 191 198 200 191 191 192 194 197 200 203 203 208 209 217 227 224 213 222 250
227 358 244 286 243 297 266 243 282 310 284 268 250 234 234 231 226 227 219 218 217 211 204 205 202 203 197 195 198 199 207 206 178 177 186 195 200 202 203 204 204 209 212 217 223 229 224 218 231
131 59 53 55 70 287 239 201 280 260 240 270 277 249 238 234 227 232 229 218 216 203 201 200 202 206 200 199 202 204 207 197 184 190 195 199 201 206 208 209 207 210 213 218 223 225 228 230 233
95 66 350 338 342 262 205 220 256 257 245 247 273 286 284 263 240 236 228 219 216 204 202 200 203 209 203 202 206 208 209 201 201 198 200 197 200 205 210 209 208 211 216 221 222 224 231 231 234
180 151 174 259 270 291 282 241 258 266 270 260 264 275 286 276 255 243 234 223 219 210 204 201 206 211 204 205 209 210 207 204 207 204 197 200 203 205 200 203 209 213 217 224 221 227 233 233 236
159 198 173 164 282 281 277 286 296 294 300 282 275 279 274 271 264 254 247 229 220 213 208 206 208 211 208 208 208 209 207 207 206 201 200 200 201 200 200 203 209 215 219 223 222 231 235 236 240
162 154 109 141 275 285 290 277 262 298 307 316 307 290 281 280 275 266 255 241 228 220 212 205 209 214 211 208 209 210 209 209 206 198 200 202 201 200 196 203 210 216 220 223 224 233 237 239 245
145 159 158 163 191 221 280 271 238 247 271 291 295 292 287 287 283 277 269 252 236 221 208 209 212 215 213 210 209 211 208 206 204 204 204 202 199 199 203 207 210 217 222 223 226 234 236 242 250
179 190 160 182 237 205 238 269 260 256 271 274 283 289 288 282 278 276 276 270 249 231 219 216 215 217 217 211 209 212 209 203 205 209 206 200 200 200 203 205 211 218 223 223 226 237 242 242 250